SCP
0 0 -0 -0 0 -0 0 0 0 -0 0 0 0 0 0 -0 0 0 0 0 0 0
0 0 0 0 -0 -0 0 0 0 0 -0 -0 -0 -0 0 -0 0 0 0 0 0 0
0 0 0 0 0 0 0 0 0 0 -0 -0 -0 -0 -0 -0 -0 -0 -0 -0 0 -0
0 0 0 0 -0 -0 -0 -0 0 -0 0 0 -0 -0 -0 -0 0 -0 -0 0 -0 -0
-0 0 0 -0 0 0 0 0 -0 0 -0 -0 0 0 -0 -0 -0 0 0 0 0 0
-0 -0 -0 0 0 -0 0 0 0 0 0 0 0 0 0 0 0 0 0 0 0 0
0 0 0 0 0 0 0 0 0 0 0 0 0 0 0 0 0 0 0 0 0 0
0 0 0 0 0 0 0 0 0 0 0 0 0 0 0 0 0 0 0 0 0 0
0 0 0 0 0 0 0 0 0 0 0 0 0 0 0 0 0 0 0 0 0 0
1 1 1 1 1 0 1 1 1 1 1 1 0 0 0 0 0 1 1 0 0 0
0 1 1 1 1 1 2 1 1 1 1 1 0 0 0 0 0 1 1 1 1 1
1 1 2 2 2 2 2 2 2 2 1 1 0 0 0 0 0 0 1 0 0 0
1 0 1 0 1 0 1 0 0 0 0 0 0 0 0 0 0 0 0 0 0 0
0 0 0 0 0 0 0 0 0 0 0 0 0 0 0 0 0 0 0 0 0 0
Wind_Speed_500mb
31 32 29 29 24 23 20 18 21 23 21 18 15 17 21 14 15 14 9 10 11 8
36 31 28 27 29 27 26 20 23 21 24 23 20 21 21 18 19 20 15 14 16 14
37 41 37 34 32 27 28 26 24 25 26 26 28 26 27 22 23 24 19 15 18 16
36 35 38 34 35 35 35 34 34 37 31 29 28 28 32 30 25 24 22 22 21 20
37 35 33 39 35 35 33 30 31 33 34 29 28 27 28 28 25 27 27 27 26 24
40 38 38 36 36 37 35 35 34 33 35 32 30 31 33 32 28 27 27 26 27 26
43 41 36 35 35 36 37 37 37 34 35 35 28 29 28 29 29 28 26 27 26 26
38 36 36 35 36 36 36 36 34 33 30 30 28 26 28 33 36 33 30 29 28 25
41 39 37 38 37 37 39 34 32 33 33 31 31 34 34 33 36 37 38 33 29 27
40 43 42 40 40 36 38 36 33 28 25 26 39 30 30 32 34 34 34 33 30 26
40 40 39 47 42 38 43 41 35 28 28 27 32 30 32 31 32 32 29 30 27 24
45 38 41 45 45 42 37 36 30 27 32 26 25 23 30 34 30 20 24 25 22 29
26 27 32 42 54 57 49 42 35 32 33 37 43 35 32 35 34 25 22 31 33 32
16 19 18 28 44 44 48 43 36 31 28 30 30 26 25 25 42 42 35 31 34 32
Wind_Direction_500mb
209 206 208 217 211 219 220 229 226 221 217 223 234 237 241 247 240 253 258 266 267 280
217 205 214 216 221 223 218 225 231 224 228 233 240 247 245 242 250 244 261 260 273 267
222 226 231 229 225 216 223 234 225 235 233 237 243 245 248 248 262 253 252 267 264 262
220 227 234 228 229 230 239 244 245 241 243 248 246 242 248 247 243 258 258 255 260 264
220 224 225 228 229 229 235 240 240 241 248 245 246 243 245 245 244 261 264 260 259 263
219 223 224 229 238 231 237 239 248 251 242 242 245 252 250 244 244 250 257 254 254 263
218 218 220 223 228 235 238 245 251 248 248 248 252 253 244 240 244 252 255 253 253 261
219 220 221 219 229 233 234 243 250 249 249 246 250 258 255 251 251 254 256 247 256 259
229 232 234 234 230 233 234 237 238 246 250 252 253 249 257 260 265 263 260 254 249 250
232 236 239 240 235 229 232 233 236 238 241 246 251 254 258 264 269 267 263 256 256 252
245 240 239 242 236 229 233 233 234 229 235 239 261 261 259 266 272 268 255 253 244 243
252 252 251 241 236 231 233 233 220 218 232 239 256 269 266 266 265 261 252 250 255 270
220 243 262 254 237 241 247 237 231 233 244 254 264 271 266 258 248 246 254 265 273 270
258 260 253 262 250 245 234 234 244 248 253 251 249 251 254 264 251 255 266 273 267 265
Wind_Speed_850mb
31 32 29 29 24 23 20 18 21 23 21 18 15 17 21 14 15 14 9 10 11 8
36 31 28 27 29 27 26 20 23 21 24 23 20 21 21 18 19 20 15 14 16 14
37 41 37 34 32 27 28 26 24 25 26 26 28 26 27 22 23 24 19 15 18 16
36 35 38 34 35 35 35 34 34 37 31 29 28 28 32 30 25 24 22 22 21 20
37 35 33 39 35 35 33 30 31 33 34 29 28 27 28 28 25 27 27 27 26 24
40 38 38 36 36 37 35 35 34 33 35 32 30 31 33 32 28 27 27 26 27 26
43 41 36 35 35 36 37 37 37 34 35 35 28 29 28 29 29 28 26 27 26 26
38 36 36 35 36 36 36 36 34 33 30 30 28 26 28 33 36 33 30 29 28 25
41 39 37 38 37 37 39 34 32 33 33 31 31 34 34 33 36 37 38 33 29 27
40 43 42 40 40 36 38 36 33 28 25 26 39 30 30 32 34 34 34 33 30 26
40 40 39 47 42 38 43 41 35 28 28 27 32 30 32 31 32 32 29 30 27 24
45 38 41 45 45 42 37 36 30 27 32 26 25 23 30 34 30 20 24 25 22 29
26 27 32 42 54 57 49 42 35 32 33 37 43 35 32 35 34 25 22 31 33 32
16 19 18 28 44 44 48 43 36 31 28 30 30 26 25 25 42 42 35 31 34 32
Wind_Direction_850mb
209 206 208 217 211 219 220 229 226 221 217 223 234 237 241 247 240 253 258 266 267 280
217 205 214 216 221 223 218 225 231 224 228 233 240 247 245 242 250 244 261 260 273 267
222 226 231 229 225 216 223 234 225 235 233 237 243 245 248 248 262 253 252 267 264 262
220 227 234 228 229 230 239 244 245 241 243 248 246 242 248 247 243 258 258 255 260 264
220 224 225 228 229 229 235 240 240 241 248 245 246 243 245 245 244 261 264 260 259 263
219 223 224 229 238 231 237 239 248 251 242 242 245 252 250 244 244 250 257 254 254 263
218 218 220 223 228 235 238 245 251 248 248 248 252 253 244 240 244 252 255 253 253 261
219 220 221 219 229 233 234 243 250 249 249 246 250 258 255 251 251 254 256 247 256 259
229 232 234 234 230 233 234 237 238 246 250 252 253 249 257 260 265 263 260 254 249 250
232 236 239 240 235 229 232 233 236 238 241 246 251 254 258 264 269 267 263 256 256 252
245 240 239 242 236 229 233 233 234 229 235 239 261 261 259 266 272 268 255 253 244 243
252 252 251 241 236 231 233 233 220 218 232 239 256 269 266 266 265 261 252 250 255 270
220 243 262 254 237 241 247 237 231 233 244 254 264 271 266 258 248 246 254 265 273 270
258 260 253 262 250 245 234 234 244 248 253 251 249 251 254 264 251 255 266 273 267 265